When you browse on this site, cookies collect data to enhance your experience and personalize the content and advertising you see.
Visit our Privacy Policy to learn more. By continuing to use the site, you agree to this use of cookies and data.
  • In Hungary
  • List of Countries
  • For 7 days
  • Water Temperature
  • Weather Map
  • News
  • Weather Widgets
  • user-avatar
    Login

    Hourly Weather Zdrogowo

    Today, 6 December, Friday

    Time Temperature Precipitation Wind Pressure Humidity
    00:00 -2°C° 0 mm 4 mps 756 mmHg 65%
    01:00 -2°C° 0 mm 4 mps 755 mmHg 67%
    02:00 -2°C° 0 mm 4 mps 755 mmHg 65%
    03:00 -2°C° 0 mm 5 mps 754 mmHg 63%
    04:00 -2°C° 0 mm 5 mps 754 mmHg 61%
    05:00 -2°C° 0 mm 5 mps 753 mmHg 59%
    06:00 -2°C° 0 mm 5 mps 753 mmHg 58%
    07:00 -2°C° 0 mm 5 mps 753 mmHg 56%
    08:00 -2°C° 0 mm 6 mps 753 mmHg 52%
    09:00 -1°C° 0 mm 6 mps 752 mmHg 48%
    10:00 +1°C° 0 mm 6 mps 752 mmHg 43%
    11:00 +2°C° 0 mm 6 mps 752 mmHg 43%
    12:00 +2°C° 0 mm 6 mps 752 mmHg 42%
    13:00 +3°C° 0 mm 6 mps 752 mmHg 41%
    14:00 +2°C° 0 mm 6 mps 751 mmHg 44%
    15:00 +2°C° 0 mm 5 mps 750 mmHg 46%
    16:00 +1°C° 0 mm 5 mps 750 mmHg 49%
    17:00 +1°C° 0 mm 5 mps 750 mmHg 49%
    18:00 +1°C° 0 mm 5 mps 750 mmHg 50%
    19:00 +1°C° 0 mm 5 mps 750 mmHg 50%
    20:00 +1°C° 0 mm 5 mps 749 mmHg 51%
    21:00 +1°C° 0 mm 5 mps 749 mmHg 51%
    22:00 +2°C° 0 mm 5 mps 749 mmHg 52%
    23:00 +2°C° 0 mm 5 mps 748 mmHg 57%

    Tomorrow, 7 December, Saturday

    Time Temperature Precipitation Wind Pressure Humidity
    00:00 +2°C° 0 mm 6 mps 748 mmHg 61%
    01:00 +2°C° 0 mm 6 mps 747 mmHg 66%
    02:00 +3°C° 0.1 mm 6 mps 747 mmHg 69%
    03:00 +3°C° 0.1 mm 6 mps 746 mmHg 73%
    04:00 +3°C° 0.1 mm 7 mps 746 mmHg 77%
    05:00 +4°C° 0.2 mm 7 mps 746 mmHg 79%
    06:00 +4°C° 0.2 mm 7 mps 745 mmHg 80%
    07:00 +5°C° 0.2 mm 7 mps 745 mmHg 82%
    08:00 +5°C° 0.1 mm 7 mps 746 mmHg 82%
    09:00 +5°C° 0.1 mm 7 mps 746 mmHg 82%
    10:00 +5°C° 0.1 mm 7 mps 746 mmHg 83%
    11:00 +6°C° 0.4 mm 7 mps 746 mmHg 82%
    12:00 +6°C° 0.4 mm 7 mps 746 mmHg 81%
    13:00 +7°C° 0.4 mm 8 mps 747 mmHg 81%
    14:00 +6°C° 0.2 mm 7 mps 747 mmHg 80%
    15:00 +6°C° 0.2 mm 7 mps 747 mmHg 80%
    16:00 +6°C° 0.2 mm 7 mps 747 mmHg 79%
    17:00 +6°C° 0.1 mm 7 mps 748 mmHg 80%
    18:00 +6°C° 0.1 mm 7 mps 748 mmHg 81%
    19:00 +6°C° 0.1 mm 7 mps 749 mmHg 82%
    20:00 +5°C° 0.3 mm 7 mps 749 mmHg 81%
    21:00 +5°C° 0.3 mm 6 mps 749 mmHg 81%
    22:00 +6°C° 0.3 mm 5 mps 750 mmHg 80%
    23:00 +6°C° 0 mm 5 mps 750 mmHg 84%

    Day after tomorrow, 8 December, Sunday

    Time Temperature Precipitation Wind Pressure Humidity
    00:00 +5°C° 0 mm 5 mps 750 mmHg 87%
    01:00 +5°C° 0 mm 5 mps 750 mmHg 90%
    02:00 +5°C° 0.1 mm 5 mps 750 mmHg 89%
    03:00 +5°C° 0.1 mm 5 mps 750 mmHg 87%
    04:00 +6°C° 0.1 mm 5 mps 750 mmHg 85%
    05:00 +6°C° 0 mm 5 mps 750 mmHg 84%
    06:00 +4°C° 0 mm 6 mps 750 mmHg 84%
    07:00 +4°C° 0 mm 6 mps 750 mmHg 83%
    08:00 +4°C° 0 mm 6 mps 749 mmHg 82%
    09:00 +4°C° 0 mm 6 mps 749 mmHg 80%
    10:00 +4°C° 0 mm 6 mps 748 mmHg 79%
    11:00 +5°C° 0 mm 7 mps 748 mmHg 75%
    12:00 +5°C° 0 mm 7 mps 747 mmHg 72%
    13:00 +6°C° 0 mm 7 mps 746 mmHg 68%
    14:00 +6°C° 0 mm 7 mps 745 mmHg 69%
    15:00 +6°C° 0 mm 7 mps 745 mmHg 70%
    16:00 +7°C° 0 mm 6 mps 744 mmHg 71%
    17:00 +6°C° 0.5 mm 7 mps 744 mmHg 76%
    18:00 +6°C° 0.5 mm 7 mps 743 mmHg 81%
    19:00 +6°C° 0.5 mm 7 mps 742 mmHg 86%
    20:00 +6°C° 0.2 mm 7 mps 742 mmHg 84%
    21:00 +8°C° 0.2 mm 7 mps 742 mmHg 82%
    22:00 +8°C° 0.2 mm 7 mps 742 mmHg 80%
    23:00 +8°C° 0.3 mm 6 mps 742 mmHg 78%

    9 December, Monday

    Time Temperature Precipitation Wind Pressure Humidity
    00:00 +7°C° 0.3 mm 5 mps 741 mmHg 76%
    01:00 +7°C° 0.3 mm 4 mps 741 mmHg 73%
    02:00 +6°C° 0 mm 4 mps 741 mmHg 76%
    03:00 +6°C° 0 mm 4 mps 741 mmHg 79%
    04:00 +5°C° 0 mm 4 mps 741 mmHg 81%
    05:00 +5°C° 0.1 mm 4 mps 741 mmHg 83%
    06:00 +5°C° 0.1 mm 4 mps 741 mmHg 84%
    07:00 +5°C° 0.1 mm 4 mps 741 mmHg 85%
    08:00 +5°C° 0 mm 4 mps 741 mmHg 82%
    09:00 +5°C° 0 mm 5 mps 741 mmHg 79%
    10:00 +5°C° 0 mm 5 mps 741 mmHg 75%
    11:00 +6°C° 0 mm 5 mps 741 mmHg 71%
    12:00 +5°C° 0 mm 6 mps 741 mmHg 67%
    13:00 +7°C° 0 mm 6 mps 740 mmHg 63%
    14:00 +5°C° 0 mm 6 mps 740 mmHg 67%
    15:00 +6°C° 0 mm 5 mps 740 mmHg 71%
    16:00 +5°C° 0 mm 4 mps 740 mmHg 75%
    17:00 +5°C° 0 mm 5 mps 740 mmHg 76%
    18:00 +5°C° 0 mm 5 mps 740 mmHg 78%
    19:00 +3°C° 0 mm 5 mps 740 mmHg 80%
    20:00 +3°C° 0.1 mm 5 mps 740 mmHg 81%
    21:00 +4°C° 0.1 mm 4 mps 740 mmHg 81%
    22:00 +4°C° 0.1 mm 4 mps 739 mmHg 81%
    23:00 +4°C° 0 mm 4 mps 740 mmHg 83%

    10 December, Tuesday

    Time Temperature Precipitation Wind Pressure Humidity
    00:00 +4°C° 0 mm 3 mps 740 mmHg 85%
    01:00 +5°C° 0 mm 2 mps 740 mmHg 87%
    02:00 +4°C° 0.1 mm 3 mps 740 mmHg 88%
    03:00 +4°C° 0.1 mm 3 mps 741 mmHg 89%
    04:00 +4°C° 0.1 mm 4 mps 741 mmHg 90%
    05:00 +2°C° 0.4 mm 5 mps 742 mmHg 88%
    06:00 +2°C° 0.4 mm 5 mps 743 mmHg 87%
    07:00 +2°C° 0.4 mm 6 mps 743 mmHg 85%
    08:00 +3°C° 0.1 mm 6 mps 744 mmHg 85%
    09:00 +3°C° 0.1 mm 6 mps 745 mmHg 86%
    10:00 +3°C° 0.1 mm 6 mps 746 mmHg 87%
    11:00 +3°C° 0.3 mm 6 mps 747 mmHg 87%
    12:00 +2°C° 0.3 mm 7 mps 748 mmHg 87%
    13:00 +2°C° 0.3 mm 7 mps 749 mmHg 87%
    14:00 +2°C° 0.1 mm 7 mps 751 mmHg 81%
    15:00 +1°C° 0.1 mm 6 mps 752 mmHg 76%
    16:00 +1°C° 0.1 mm 6 mps 753 mmHg 70%
    17:00 0°C° 0 mm 5 mps 754 mmHg 70%
    18:00 -1°C° 0 mm 4 mps 755 mmHg 69%
    19:00 -1°C° 0 mm 3 mps 755 mmHg 69%
    20:00 -1°C° 0 mm 3 mps 755 mmHg 71%
    21:00 -1°C° 0 mm 3 mps 755 mmHg 73%
    22:00 -2°C° 0 mm 2 mps 756 mmHg 75%
    23:00 -1°C° 0 mm 3 mps 755 mmHg 75%

    11 December, Wednesday

    Time Temperature Precipitation Wind Pressure Humidity
    00:00 -1°C° 0 mm 3 mps 754 mmHg 74%
    01:00 -2°C° 0 mm 4 mps 754 mmHg 73%
    02:00 -2°C° 0 mm 4 mps 753 mmHg 70%
    03:00 -2°C° 0 mm 5 mps 752 mmHg 67%
    04:00 -2°C° 0 mm 6 mps 751 mmHg 65%
    05:00 -2°C° 0 mm 6 mps 750 mmHg 65%
    06:00 -2°C° 0 mm 6 mps 749 mmHg 65%
    07:00 -1°C° 0 mm 6 mps 749 mmHg 65%
    08:00 -1°C° 0.2 mm 6 mps 748 mmHg 67%
    09:00 +1°C° 0.2 mm 6 mps 747 mmHg 70%
    10:00 +1°C° 0.2 mm 6 mps 747 mmHg 72%
    11:00 +1°C° 0.5 mm 6 mps 746 mmHg 77%
    12:00 +1°C° 0.5 mm 6 mps 746 mmHg 81%
    13:00 +1°C° 0.5 mm 6 mps 745 mmHg 85%
    14:00 +1°C° 0.4 mm 6 mps 745 mmHg 87%
    15:00 +1°C° 0.4 mm 6 mps 745 mmHg 89%
    16:00 +2°C° 0.4 mm 6 mps 745 mmHg 90%
    17:00 +2°C° 0.2 mm 5 mps 746 mmHg 91%
    18:00 +2°C° 0.2 mm 5 mps 746 mmHg 92%
    19:00 +2°C° 0.2 mm 5 mps 746 mmHg 93%
    20:00 +3°C° 0.1 mm 4 mps 746 mmHg 92%
    21:00 +1°C° 0.1 mm 4 mps 746 mmHg 92%
    22:00 +1°C° 0.1 mm 4 mps 746 mmHg 91%
    23:00 +1°C° 0 mm 4 mps 746 mmHg 92%
    Show more